,,,PA_Meas_PMT16A,,PR_Meas_QMR101_102,,RH_Meas_QMH101,,SR_Meas_QMS101,,TA_Meas_QMH101,,GenWind,,GenWind,
date,time,status,PA,status,PR,status,RH,status,SR,status,TA,status,DirAvg,status,SpdAvg,
2008-08-31, 00:00:04,VALID,1005.77,VALID,0,VALID,96.1315,VALID,0,VALID,23.4877,VALID,335,VALID,0,
2008-08-31, 00:01:04,VALID,1005.77,VALID,0,VALID,96.1544,VALID,0,VALID,23.5868,VALID,335,VALID,0,
2008-08-31, 00:02:04,VALID,1005.76,VALID,0,VALID,96.1697,VALID,0,VALID,23.6257,VALID,335,VALID,0,
2008-08-31, 00:03:04,VALID,1005.77,VALID,0,VALID,96.1773,VALID,0,VALID,23.6452,VALID,335,VALID,0,
2008-08-31, 00:04:04,VALID,1005.81,VALID,0,VALID,96.1849,VALID,0,VALID,23.7035,VALID,335,VALID,0,
2008-08-31, 00:05:04,VALID,1005.81,VALID,0,VALID,96.1544,VALID,0,VALID,23.6469,VALID,335,VALID,0,
2008-08-31, 00:06:04,VALID,1005.8,VALID,0,VALID,96.101,VALID,0,VALID,23.5868,VALID,335,VALID,0,
2008-08-31, 00:07:04,VALID,1005.82,VALID,0,VALID,96.0934,VALID,0,VALID,23.5885,VALID,335,VALID,0,
2008-08-31, 00:08:04,VALID,1005.76,VALID,0,VALID,96.04,VALID,0,VALID,23.5478,VALID,335,VALID,0,
2008-08-31, 00:09:04,VALID,1005.78,VALID,0,VALID,96.0476,VALID,0,VALID,23.5673,VALID,335,VALID,0,
2008-08-31, 00:10:04,VALID,1005.74,VALID,0,VALID,96.0476,VALID,0,VALID,23.5868,VALID,335,VALID,0,
2008-08-31, 00:11:04,VALID,1005.72,VALID,0,VALID,96.0552,VALID,0,VALID,23.5673,VALID,335,VALID,0,
2008-08-31, 00:12:04,VALID,1005.72,VALID,0,VALID,96.0247,VALID,0,VALID,23.5691,VALID,335,VALID,0,
2008-08-31, 00:13:04,VALID,1005.71,VALID,0,VALID,96.0247,VALID,0,VALID,23.5691,VALID,335,VALID,0,
2008-08-31, 00:14:04,VALID,1005.69,VALID,0,VALID,96.0247,VALID,0,VALID,23.5284,VALID,335,VALID,0,
2008-08-31, 00:15:04,VALID,1005.68,VALID,0,VALID,95.9942,VALID,0,VALID,23.5107,VALID,335,VALID,0,
2008-08-31, 00:16:04,VALID,1005.66,VALID,0,VALID,96.0171,VALID,0,VALID,23.4894,VALID,335,VALID,0,
2008-08-31, 00:17:04,VALID,1005.63,VALID,0,VALID,95.9637,VALID,0,VALID,23.4505,VALID,335,VALID,0,
2008-08-31, 00:18:04,VALID,1005.62,VALID,0,VALID,95.9789,VALID,0,VALID,23.4718,VALID,335,VALID,0,
2008-08-31, 00:19:04,VALID,1005.62,VALID,0,VALID,96.0247,VALID,0,VALID,23.4894,VALID,335,VALID,0,
2008-08-31, 00:20:04,VALID,1005.62,VALID,0,VALID,96.0247,VALID,0,VALID,23.4912,VALID,335,VALID,0,
2008-08-31, 00:21:04,VALID,1005.63,VALID,0,VALID,96.0018,VALID,0,VALID,23.4718,VALID,335,VALID,0,
2008-08-31, 00:22:04,VALID,1005.62,VALID,0,VALID,96.0247,VALID,0,VALID,23.4311,VALID,335,VALID,0,
2008-08-31, 00:23:04,VALID,1005.66,VALID,0,VALID,96.04,VALID,0,VALID,23.4718,VALID,335,VALID,0,
2008-08-31, 00:24:04,VALID,1005.67,VALID,0,VALID,96.0323,VALID,0,VALID,23.4311,VALID,335,VALID,0,
2008-08-31, 00:25:04,VALID,1005.64,VALID,0,VALID,96.04,VALID,0,VALID,23.4311,VALID,335,VALID,0,
2008-08-31, 00:26:04,VALID,1005.62,VALID,0,VALID,96.0476,VALID,0,VALID,23.4523,VALID,335,VALID,0,
2008-08-31, 00:27:04,VALID,1005.61,VALID,0,VALID,96.0476,VALID,0,VALID,23.4098,VALID,335,VALID,0,
2008-08-31, 00:28:04,VALID,1005.59,VALID,0,VALID,96.0629,VALID,0,VALID,23.4912,VALID,335,VALID,0,
2008-08-31, 00:29:04,VALID,1005.58,VALID,0,VALID,96.0552,VALID,0,VALID,23.4505,VALID,335,VALID,0,
2008-08-31, 00:30:04,VALID,1005.59,VALID,0,VALID,96.0629,VALID,0,VALID,23.4116,VALID,335,VALID,0,
2008-08-31, 00:31:04,VALID,1005.58,VALID,0,VALID,96.0171,VALID,0,VALID,23.3921,VALID,335,VALID,0,
2008-08-31, 00:32:04,VALID,1005.51,VALID,0,VALID,96.0552,VALID,0,VALID,23.3921,VALID,335,VALID,0,
2008-08-31, 00:33:04,VALID,1005.53,VALID,0,VALID,96.0476,VALID,0,VALID,23.4116,VALID,335,VALID,0,
2008-08-31, 00:34:04,VALID,1005.51,VALID,0,VALID,96.1163,VALID,0,VALID,23.4311,VALID,335,VALID,0,
2008-08-31, 00:35:04,VALID,1005.49,VALID,0,VALID,96.1468,VALID,0,VALID,23.5302,VALID,335,VALID,0,
2008-08-31, 00:36:04,VALID,1005.48,VALID,0,VALID,96.101,VALID,0,VALID,23.4912,VALID,335,VALID,0,
2008-08-31, 00:37:04,VALID,1005.43,VALID,0,VALID,96.0781,VALID,0,VALID,23.4718,VALID,335,VALID,0,
2008-08-31, 00:38:04,VALID,1005.43,VALID,0,VALID,96.0934,VALID,0,VALID,23.4328,VALID,335,VALID,0,
2008-08-31, 00:39:04,VALID,1005.4,VALID,0,VALID,96.1315,VALID,0,VALID,23.5107,VALID,335,VALID,0,
2008-08-31, 00:40:04,VALID,1005.38,VALID,0,VALID,96.1239,VALID,0,VALID,23.47,VALID,335,VALID,0,
2008-08-31, 00:41:04,VALID,1005.4,VALID,0,VALID,96.1315,VALID,0,VALID,23.5107,VALID,335,VALID,0,
2008-08-31, 00:42:04,VALID,1005.38,VALID,0,VALID,96.162,VALID,0,VALID,23.5691,VALID,335,VALID,0,
2008-08-31, 00:43:04,VALID,1005.36,VALID,0,VALID,96.1468,VALID,0,VALID,23.5691,VALID,335,VALID,0,
2008-08-31, 00:44:04,VALID,1005.4,VALID,0,VALID,96.1468,VALID,0,VALID,23.5673,VALID,335,VALID,0,
2008-08-31, 00:45:04,VALID,1005.38,VALID,0,VALID,96.1163,VALID,0,VALID,23.6275,VALID,335,VALID,0,
2008-08-31, 00:46:04,VALID,1005.37,VALID,0,VALID,96.1086,VALID,0,VALID,23.5885,VALID,335,VALID,0,
2008-08-31, 00:47:04,VALID,1005.39,VALID,0,VALID,96.0934,VALID,0,VALID,23.5885,VALID,335,VALID,0,
2008-08-31, 00:48:04,VALID,1005.35,VALID,0,VALID,96.0705,VALID,0,VALID,23.5496,VALID,335,VALID,0,
2008-08-31, 00:49:04,VALID,1005.35,VALID,0,VALID,96.0781,VALID,0,VALID,23.5496,VALID,335,VALID,0,
2008-08-31, 00:50:04,VALID,1005.33,VALID,0,VALID,96.04,VALID,0,VALID,23.5107,VALID,335,VALID,0,
2008-08-31, 00:51:04,VALID,1005.34,VALID,0,VALID,96.0629,VALID,0,VALID,23.5284,VALID,335,VALID,0,
2008-08-31, 00:52:04,VALID,1005.32,VALID,0,VALID,96.0705,VALID,0,VALID,23.5885,VALID,335,VALID,0,
2008-08-31, 00:53:04,VALID,1005.34,VALID,0,VALID,96.04,VALID,0,VALID,23.5302,VALID,335,VALID,0,
2008-08-31, 00:54:04,VALID,1005.34,VALID,0,VALID,96.0018,VALID,0,VALID,23.5107,VALID,335,VALID,0,
2008-08-31, 00:55:04,VALID,1005.33,VALID,0,VALID,95.9942,VALID,0,VALID,23.4912,VALID,335,VALID,0,
2008-08-31, 00:56:04,VALID,1005.36,VALID,0,VALID,95.9789,VALID,0,VALID,23.47,VALID,335,VALID,0,
2008-08-31, 00:57:04,VALID,1005.35,VALID,0,VALID,95.9866,VALID,0,VALID,23.4912,VALID,335,VALID,0,
2008-08-31, 00:58:04,VALID,1005.35,VALID,0,VALID,95.9866,VALID,0,VALID,23.4912,VALID,335,VALID,0,
2008-08-31, 00:59:04,VALID,1005.35,VALID,0,VALID,95.9789,VALID,0,VALID,23.4912,VALID,335,VALID,0,
2008-08-31, 01:00:04,VALID,1005.37,VALID,0,VALID,95.9942,VALID,0,VALID,23.4912,VALID,335,VALID,0,
2008-08-31, 01:01:04,VALID,1005.34,VALID,0,VALID,96.0247,VALID,0,VALID,23.4912,VALID,335,VALID,0,
2008-08-31, 01:02:04,VALID,1005.32,VALID,0,VALID,96.04,VALID,0,VALID,23.5302,VALID,335,VALID,0,
2008-08-31, 01:03:04,VALID,1005.31,VALID,0,VALID,96.0247,VALID,0,VALID,23.5319,VALID,335,VALID,0,
2008-08-31, 01:04:04,VALID,1005.29,VALID,0,VALID,96.0476,VALID,0,VALID,23.5302,VALID,335,VALID,0,
2008-08-31, 01:05:04,VALID,1005.29,VALID,0,VALID,96.04,VALID,0,VALID,23.5107,VALID,335,VALID,0,
2008-08-31, 01:06:04,VALID,1005.27,VALID,0,VALID,96.0095,VALID,0,VALID,23.4718,VALID,335,VALID,0,
2008-08-31, 01:07:04,VALID,1005.25,VALID,0,VALID,96.0476,VALID,0,VALID,23.5107,VALID,335,VALID,0,
2008-08-31, 01:08:04,VALID,1005.25,VALID,0,VALID,96.0705,VALID,0,VALID,23.5302,VALID,335,VALID,0,
2008-08-31, 01:09:04,VALID,1005.25,VALID,0,VALID,96.0476,VALID,0,VALID,23.4718,VALID,335,VALID,0,
2008-08-31, 01:10:04,VALID,1005.19,VALID,0,VALID,96.0476,VALID,0,VALID,23.4523,VALID,335,VALID,0,
2008-08-31, 01:11:04,VALID,1005.18,VALID,0,VALID,96.0171,VALID,0,VALID,23.4328,VALID,335,VALID,0,
2008-08-31, 01:12:04,VALID,1005.14,VALID,0,VALID,96.0552,VALID,0,VALID,23.4718,VALID,335,VALID,0,
2008-08-31, 01:13:04,VALID,1005.1,VALID,0,VALID,96.0629,VALID,0,VALID,23.4505,VALID,335,VALID,0,
2008-08-31, 01:14:04,VALID,1005.05,VALID,0,VALID,96.0552,VALID,0,VALID,23.4718,VALID,335,VALID,0,
2008-08-31, 01:15:04,VALID,1005.01,VALID,0,VALID,96.04,VALID,0,VALID,23.4134,VALID,335,VALID,0,
2008-08-31, 01:16:04,VALID,1004.97,VALID,0,VALID,96.0247,VALID,0,VALID,23.4328,VALID,335,VALID,0,
2008-08-31, 01:17:04,VALID,1004.92,VALID,0,VALID,96.1163,VALID,0,VALID,23.4718,VALID,335,VALID,0,
2008-08-31, 01:18:04,VALID,1004.94,VALID,0,VALID,96.2231,VALID,0,VALID,23.5868,VALID,335,VALID,0.527344,
2008-08-31, 01:19:04,VALID,1004.92,VALID,0,VALID,96.2841,VALID,0,VALID,23.7443,VALID,336,VALID,0.284766,
2008-08-31, 01:20:04,VALID,1004.94,VALID,0,VALID,96.2994,VALID,0,VALID,23.8611,VALID,21,VALID,0.582812,
2008-08-31, 01:21:04,VALID,1004.92,VALID,0,VALID,96.2536,VALID,0,VALID,23.8611,VALID,4,VALID,0.663672,
2008-08-31, 01:22:04,VALID,1004.91,VALID,0,VALID,96.2994,VALID,0,VALID,24.0363,VALID,32,VALID,0.651953,
2008-08-31, 01:23:04,VALID,1004.86,VALID,0,VALID,96.2841,VALID,0,VALID,24.0752,VALID,5,VALID,0.665234,
2008-08-31, 01:24:04,VALID,1004.84,VALID,0,VALID,96.2536,VALID,0,VALID,24.1142,VALID,340,VALID,0.727734,
2008-08-31, 01:25:04,VALID,1004.8,VALID,0,VALID,96.2154,VALID,0,VALID,24.1355,VALID,341,VALID,0.395312,
2008-08-31, 01:26:04,VALID,1004.77,VALID,0,VALID,96.162,VALID,0,VALID,24.077,VALID,342,VALID,0.839453,
2008-08-31, 01:27:04,VALID,1004.73,VALID,0,VALID,96.1544,VALID,0,VALID,24.1336,VALID,345,VALID,0.54375,
2008-08-31, 01:28:04,VALID,1004.7,VALID,0,VALID,96.0629,VALID,0,VALID,24.0965,VALID,357,VALID,0.618359,
2008-08-31, 01:29:04,VALID,1004.68,VALID,0,VALID,96.0552,VALID,0,VALID,24.116,VALID,348,VALID,0.713281,
2008-08-31, 01:30:04,VALID,1004.68,VALID,0,VALID,96.0705,VALID,0,VALID,24.192,VALID,338,VALID,0.617578,
2008-08-31, 01:31:04,VALID,1004.7,VALID,0,VALID,96.0095,VALID,0,VALID,24.1336,VALID,352,VALID,0.753516,
2008-08-31, 01:32:04,VALID,1004.69,VALID,0,VALID,95.9484,VALID,0,VALID,24.1142,VALID,352,VALID,0.548047,
2008-08-31, 01:33:04,VALID,1004.73,VALID,0,VALID,95.9408,VALID,0,VALID,24.1726,VALID,352,VALID,0.394531,
2008-08-31, 01:34:04,VALID,1004.71,VALID,0,VALID,95.9561,VALID,0,VALID,24.2115,VALID,352,VALID,0.634766,
2008-08-31, 01:35:04,VALID,1004.75,VALID,0,VALID,95.9561,VALID,0,VALID,24.231,VALID,352,VALID,0.620313,
2008-08-31, 01:36:04,VALID,1004.77,VALID,0,VALID,95.9179,VALID,0,VALID,24.2115,VALID,352,VALID,0.114453,
2008-08-31, 01:37:04,VALID,1004.8,VALID,0,VALID,95.895,VALID,0,VALID,24.231,VALID,352,VALID,0,
2008-08-31, 01:38:04,VALID,1004.78,VALID,0,VALID,95.8569,VALID,0,VALID,24.2115,VALID,352,VALID,0.291016,
2008-08-31, 01:39:04,VALID,1004.77,VALID,0,VALID,95.8187,VALID,0,VALID,24.1726,VALID,352,VALID,0.102734,
2008-08-31, 01:40:04,VALID,1004.74,VALID,0,VALID,95.7806,VALID,0,VALID,24.1726,VALID,352,VALID,0.0335938,
2008-08-31, 01:41:04,VALID,1004.71,VALID,0,VALID,95.7806,VALID,0,VALID,24.1726,VALID,297,VALID,0.678125,
2008-08-31, 01:42:04,VALID,1004.74,VALID,0,VALID,95.8035,VALID,0,VALID,24.2115,VALID,177,VALID,1.26602,
2008-08-31, 01:43:04,VALID,1004.77,VALID,0,VALID,95.7959,VALID,0,VALID,24.231,VALID,175,VALID,1.58281,
2008-08-31, 01:44:04,VALID,1004.86,VALID,0,VALID,95.7806,VALID,0,VALID,24.192,VALID,177,VALID,1.57891,
2008-08-31, 01:45:04,VALID,1004.85,VALID,0,VALID,95.6204,VALID,0,VALID,24.1939,VALID,162,VALID,0.991797,
2008-08-31, 01:46:04,VALID,1004.86,VALID,0,VALID,95.628,VALID,0,VALID,24.1744,VALID,176,VALID,1.10039,
2008-08-31, 01:47:04,VALID,1004.85,VALID,0,VALID,95.6433,VALID,0,VALID,24.1531,VALID,184,VALID,1.29961,
2008-08-31, 01:48:04,VALID,1004.82,VALID,0,VALID,95.3381,VALID,0,VALID,24.1355,VALID,178,VALID,2.23828,
2008-08-31, 01:49:04,VALID,1004.85,VALID,0,VALID,94.1022,VALID,0,VALID,24.0947,VALID,139,VALID,3.8918,
2008-08-31, 01:50:04,VALID,1004.83,VALID,0,VALID,91.4092,VALID,0,VALID,24.1726,VALID,141,VALID,2.9043,
2008-08-31, 01:51:04,VALID,1004.78,VALID,0,VALID,90.2039,VALID,0,VALID,24.231,VALID,127,VALID,1.53828,
2008-08-31, 01:52:04,VALID,1004.74,VALID,0,VALID,88.5332,VALID,0,VALID,24.2328,VALID,130,VALID,1.94453,
2008-08-31, 01:53:04,VALID,1004.76,VALID,0,VALID,88.5103,VALID,0,VALID,24.1549,VALID,120,VALID,2.31055,
2008-08-31, 01:54:04,VALID,1004.71,VALID,1,VALID,89.7461,VALID,0,VALID,23.8611,VALID,114,VALID,1.87148,
2008-08-31, 01:55:04,VALID,1004.58,VALID,0,VALID,89.113,VALID,0,VALID,23.4912,VALID,137,VALID,3.38711,
2008-08-31, 01:56:04,VALID,1004.55,VALID,0,VALID,90.0589,VALID,0,VALID,23.4134,VALID,108,VALID,2.15156,
2008-08-31, 01:57:04,VALID,1004.57,VALID,0.5,VALID,91.1575,VALID,0,VALID,23.2577,VALID,74,VALID,0.832031,
2008-08-31, 01:58:04,VALID,1004.56,VALID,0,VALID,91.8136,VALID,0,VALID,23.1603,VALID,50,VALID,1.34258,
2008-08-31, 01:59:04,VALID,1004.52,VALID,0,VALID,92.34,VALID,0,VALID,23.0224,VALID,84,VALID,0.612109,
2008-08-31, 02:00:04,VALID,1004.52,VALID,0,VALID,92.7748,VALID,0,VALID,22.9869,VALID,103,VALID,0.692578,
2008-08-31, 02:01:04,VALID,1004.47,VALID,0,VALID,92.9198,VALID,0,VALID,22.9268,VALID,116,VALID,0.990234,
2008-08-31, 02:02:04,VALID,1004.44,VALID,0,VALID,93.1639,VALID,0,VALID,22.9268,VALID,86,VALID,0.916406,
2008-08-31, 02:03:04,VALID,1004.42,VALID,0,VALID,93.0647,VALID,0,VALID,22.9463,VALID,50,VALID,0.879297,
2008-08-31, 02:04:04,VALID,1004.39,VALID,0,VALID,93.3241,VALID,0,VALID,22.9463,VALID,14,VALID,0.997266,
2008-08-31, 02:05:04,VALID,1004.37,VALID,0,VALID,93.4767,VALID,0,VALID,22.9463,VALID,349,VALID,0.895312,
2008-08-31, 02:06:04,VALID,1004.35,VALID,0,VALID,93.7361,VALID,0,VALID,22.9285,VALID,8,VALID,1.0957,
2008-08-31, 02:07:04,VALID,1004.38,VALID,0,VALID,94.0259,VALID,0,VALID,22.8684,VALID,5,VALID,0.976953,
2008-08-31, 02:08:04,VALID,1004.44,VALID,0,VALID,94.1404,VALID,0,VALID,22.8861,VALID,88,VALID,1.02969,
2008-08-31, 02:09:04,VALID,1004.43,VALID,0,VALID,94.2319,VALID,0,VALID,22.8879,VALID,55,VALID,0.60625,
2008-08-31, 02:10:04,VALID,1004.41,VALID,0,VALID,94.3387,VALID,0,VALID,22.9091,VALID,19,VALID,0.774609,
2008-08-31, 02:11:04,VALID,1004.4,VALID,0,VALID,94.4532,VALID,0,VALID,22.9073,VALID,26,VALID,0.867578,
2008-08-31, 02:12:04,VALID,1004.39,VALID,0,VALID,94.4989,VALID,0,VALID,22.8879,VALID,29,VALID,0.277344,
2008-08-31, 02:13:04,VALID,1004.42,VALID,0,VALID,94.5523,VALID,0,VALID,22.8684,VALID,29,VALID,0.0734375,
2008-08-31, 02:14:04,VALID,1004.42,VALID,0,VALID,94.6057,VALID,0,VALID,22.8489,VALID,28,VALID,0.598047,
2008-08-31, 02:15:04,VALID,1004.4,VALID,0,VALID,94.6591,VALID,0,VALID,22.8295,VALID,28,VALID,0.312109,
2008-08-31, 02:16:04,VALID,1004.41,VALID,0,VALID,94.682,VALID,0,VALID,22.8118,VALID,28,VALID,0,
2008-08-31, 02:17:04,VALID,1004.41,VALID,0,VALID,94.7278,VALID,0,VALID,22.7711,VALID,28,VALID,0.175781,
2008-08-31, 02:18:04,VALID,1004.4,VALID,0,VALID,94.7507,VALID,0,VALID,22.7711,VALID,96,VALID,0.691016,
2008-08-31, 02:19:04,VALID,1004.41,VALID,0,VALID,94.7812,VALID,0,VALID,22.7711,VALID,95,VALID,0.784766,
2008-08-31, 02:20:04,VALID,1004.41,VALID,0,VALID,94.8346,VALID,0,VALID,22.7711,VALID,76,VALID,0.707812,
2008-08-31, 02:21:04,VALID,1004.37,VALID,0,VALID,94.8728,VALID,0,VALID,22.7516,VALID,48,VALID,0.542188,
2008-08-31, 02:22:04,VALID,1004.39,VALID,0,VALID,94.9262,VALID,0,VALID,22.7516,VALID,15,VALID,0.664453,
2008-08-31, 02:23:04,VALID,1004.38,VALID,0,VALID,95.033,VALID,0,VALID,22.7516,VALID,16,VALID,0.475391,
2008-08-31, 02:24:04,VALID,1004.4,VALID,0,VALID,95.094,VALID,0,VALID,22.7534,VALID,16,VALID,0.104687,
2008-08-31, 02:25:04,VALID,1004.4,VALID,0,VALID,95.1321,VALID,0,VALID,22.7322,VALID,60,VALID,0.64375,
2008-08-31, 02:26:04,VALID,1004.39,VALID,0,VALID,95.2313,VALID,0,VALID,22.7516,VALID,78,VALID,0.574219,
2008-08-31, 02:27:04,VALID,1004.38,VALID,0,VALID,95.2542,VALID,0,VALID,22.7516,VALID,92,VALID,0.616016,
2008-08-31, 02:28:04,VALID,1004.36,VALID,0,VALID,95.3,VALID,0,VALID,22.7711,VALID,61,VALID,0.502734,
2008-08-31, 02:29:04,VALID,1004.37,VALID,0,VALID,95.2847,VALID,0,VALID,22.81,VALID,63,VALID,0.259766,
2008-08-31, 02:30:04,VALID,1004.33,VALID,0,VALID,95.2542,VALID,0,VALID,22.7906,VALID,74,VALID,0.495703,
2008-08-31, 02:31:04,VALID,1004.36,VALID,0,VALID,95.361,VALID,0,VALID,22.81,VALID,76,VALID,0.453516,
2008-08-31, 02:32:04,VALID,1004.34,VALID,0,VALID,95.3457,VALID,0,VALID,22.81,VALID,63,VALID,0.579687,
2008-08-31, 02:33:04,VALID,1004.34,VALID,0,VALID,95.3457,VALID,0,VALID,22.81,VALID,59,VALID,0.441797,
2008-08-31, 02:34:04,VALID,1004.39,VALID,0,VALID,95.3915,VALID,0,VALID,22.8083,VALID,61,VALID,0.719922,
2008-08-31, 02:35:04,VALID,1004.4,VALID,0,VALID,95.3915,VALID,0,VALID,22.8489,VALID,30,VALID,0.649609,
2008-08-31, 02:36:04,VALID,1004.4,VALID,0,VALID,95.361,VALID,0,VALID,22.8295,VALID,29,VALID,0.241016,
2008-08-31, 02:37:04,VALID,1004.4,VALID,0,VALID,95.3534,VALID,0,VALID,22.7888,VALID,29,VALID,0.390625,
2008-08-31, 02:38:04,VALID,1004.41,VALID,0,VALID,95.3152,VALID,0,VALID,22.7499,VALID,29,VALID,0.0390625,
2008-08-31, 02:39:04,VALID,1004.4,VALID,0,VALID,95.3839,VALID,0,VALID,22.7499,VALID,29,VALID,0.328906,
2008-08-31, 02:40:04,VALID,1004.4,VALID,0,VALID,95.3915,VALID,0,VALID,22.7516,VALID,29,VALID,0.122266,
2008-08-31, 02:41:04,VALID,1004.4,VALID,0,VALID,95.4602,VALID,0,VALID,22.7322,VALID,29,VALID,0,
2008-08-31, 02:42:04,VALID,1004.38,VALID,0,VALID,95.4678,VALID,0,VALID,22.6933,VALID,29,VALID,0,
2008-08-31, 02:43:04,VALID,1004.37,VALID,0,VALID,95.5288,VALID,0,VALID,22.6915,VALID,29,VALID,0,
2008-08-31, 02:44:04,VALID,1004.33,VALID,0,VALID,95.6051,VALID,0,VALID,22.6915,VALID,29,VALID,0.00429688,
2008-08-31, 02:45:04,VALID,1004.27,VALID,0,VALID,95.6662,VALID,0,VALID,22.711,VALID,29,VALID,0.207813,
2008-08-31, 02:46:04,VALID,1004.28,VALID,0,VALID,95.7196,VALID,0,VALID,22.7711,VALID,29,VALID,0.108594,
2008-08-31, 02:47:04,VALID,1004.29,VALID,0,VALID,95.7119,VALID,0,VALID,22.7516,VALID,29,VALID,0,
2008-08-31, 02:48:04,VALID,1004.32,VALID,0,VALID,95.6433,VALID,0,VALID,22.7127,VALID,29,VALID,0.000390625,
2008-08-31, 02:49:04,VALID,1004.3,VALID,0,VALID,95.6509,VALID,0,VALID,22.7127,VALID,29,VALID,0.0902344,
2008-08-31, 02:50:04,VALID,1004.3,VALID,0,VALID,95.689,VALID,0,VALID,22.6721,VALID,29,VALID,0,
2008-08-31, 02:51:04,VALID,1004.31,VALID,0,VALID,95.7653,VALID,0,VALID,22.6704,VALID,29,VALID,0,
2008-08-31, 02:52:04,VALID,1004.3,VALID,0,VALID,95.7882,VALID,0.100563,VALID,22.711,VALID,29,VALID,0,
2008-08-31, 02:53:04,VALID,1004.3,VALID,0,VALID,95.8264,VALID,0,VALID,22.711,VALID,29,VALID,0,
2008-08-31, 02:54:04,VALID,1004.29,VALID,0.5,VALID,95.9103,VALID,0,VALID,22.7906,VALID,29,VALID,0.0339844,
2008-08-31, 02:55:04,VALID,1004.26,VALID,0,VALID,95.9484,VALID,0,VALID,22.8295,VALID,29,VALID,0.29375,
2008-08-31, 02:56:04,VALID,1004.24,VALID,0.5,VALID,95.9942,VALID,0,VALID,22.8295,VALID,29,VALID,0.221484,
2008-08-31, 02:57:04,VALID,1004.21,VALID,0,VALID,95.9789,VALID,0,VALID,22.8278,VALID,29,VALID,0.444141,
2008-08-31, 02:58:04,VALID,1004.15,VALID,1,VALID,96.101,VALID,0,VALID,22.8667,VALID,341,VALID,0.666016,
2008-08-31, 02:59:04,VALID,1004.1,VALID,0.5,VALID,96.2612,VALID,0,VALID,23.0613,VALID,307,VALID,1.04688,
2008-08-31, 03:00:04,VALID,1004.05,VALID,0.5,VALID,96.2688,VALID,0,VALID,23.1586,VALID,309,VALID,0.523047,
2008-08-31, 03:01:04,VALID,1004.01,VALID,0,VALID,96.2841,VALID,0,VALID,23.217,VALID,308,VALID,0.144922,
2008-08-31, 03:02:04,VALID,1003.95,VALID,0,VALID,96.2536,VALID,0,VALID,23.2771,VALID,310,VALID,0.347266,
2008-08-31, 03:03:04,VALID,1003.91,VALID,0,VALID,96.2307,VALID,0.100563,VALID,23.2754,VALID,323,VALID,0.528906,
2008-08-31, 03:04:04,VALID,1004,VALID,0,VALID,96.2154,VALID,0,VALID,23.2559,VALID,352,VALID,0.8125,
2008-08-31, 03:05:04,VALID,1004.08,VALID,0,VALID,96.1849,VALID,0,VALID,23.2559,VALID,39,VALID,0.766016,
2008-08-31, 03:06:04,VALID,1004.14,VALID,0,VALID,96.1926,VALID,0,VALID,23.2966,VALID,71,VALID,0.564844,
2008-08-31, 03:07:04,VALID,1004.16,VALID,0,VALID,96.1697,VALID,0,VALID,23.316,VALID,74,VALID,0.673047,
2008-08-31, 03:08:04,VALID,1004.24,VALID,0,VALID,96.162,VALID,0,VALID,23.355,VALID,127,VALID,0.725391,
2008-08-31, 03:09:04,VALID,1004.22,VALID,0,VALID,96.1697,VALID,0,VALID,23.3939,VALID,158,VALID,1.44336,
2008-08-31, 03:10:04,VALID,1004.24,VALID,0,VALID,96.1468,VALID,0,VALID,23.4328,VALID,162,VALID,0.85,
2008-08-31, 03:11:04,VALID,1004.18,VALID,0,VALID,96.162,VALID,0.100563,VALID,23.4505,VALID,170,VALID,0.456641,
2008-08-31, 03:12:04,VALID,1004.17,VALID,0,VALID,96.1239,VALID,0,VALID,23.4912,VALID,135,VALID,0.979297,
2008-08-31, 03:13:04,VALID,1004.23,VALID,0,VALID,96.1163,VALID,0,VALID,23.5885,VALID,118,VALID,1.26797,
2008-08-31, 03:14:04,VALID,1004.24,VALID,0,VALID,96.0476,VALID,0,VALID,23.7035,VALID,118,VALID,1.45742,
2008-08-31, 03:15:04,VALID,1004.26,VALID,0,VALID,95.9103,VALID,0,VALID,23.8221,VALID,136,VALID,1.06328,
2008-08-31, 03:16:04,VALID,1004.28,VALID,0,VALID,95.5975,VALID,0,VALID,23.8593,VALID,120,VALID,1.62109,
2008-08-31, 03:17:04,VALID,1004.31,VALID,0,VALID,95.3991,VALID,0,VALID,23.9,VALID,98,VALID,0.580859,
2008-08-31, 03:18:04,VALID,1004.3,VALID,0,VALID,95.2542,VALID,0,VALID,23.9,VALID,106,VALID,0.616016,
2008-08-31, 03:19:04,VALID,1004.26,VALID,0,VALID,95.1474,VALID,0,VALID,23.9195,VALID,96,VALID,0.954297,
2008-08-31, 03:20:04,VALID,1004.2,VALID,0,VALID,95.094,VALID,0,VALID,23.9195,VALID,100,VALID,1.08945,
2008-08-31, 03:21:04,VALID,1004.11,VALID,0,VALID,95.0787,VALID,0,VALID,23.9389,VALID,50,VALID,0.541016,
2008-08-31, 03:22:04,VALID,1004.05,VALID,0,VALID,95.0558,VALID,0,VALID,23.9195,VALID,48,VALID,0.253125,
2008-08-31, 03:23:04,VALID,1004.07,VALID,0,VALID,95.1016,VALID,0,VALID,23.9,VALID,16,VALID,0.382813,
2008-08-31, 03:24:04,VALID,1004.06,VALID,0,VALID,95.3381,VALID,0,VALID,23.9389,VALID,214,VALID,0.904688,
2008-08-31, 03:25:04,VALID,1004.12,VALID,0,VALID,95.1932,VALID,0,VALID,24.0168,VALID,63,VALID,0.582031,
2008-08-31, 03:26:04,VALID,1004.12,VALID,0,VALID,94.9033,VALID,0,VALID,24.0168,VALID,37,VALID,0.677734,
2008-08-31, 03:27:04,VALID,1004.12,VALID,0,VALID,94.7202,VALID,0,VALID,23.9584,VALID,36,VALID,0.41875,
2008-08-31, 03:28:04,VALID,1004.19,VALID,0,VALID,94.7354,VALID,0,VALID,23.9,VALID,36,VALID,0.329688,
2008-08-31, 03:29:04,VALID,1004.18,VALID,0,VALID,94.8728,VALID,0,VALID,23.8805,VALID,58,VALID,0.416406,
2008-08-31, 03:30:04,VALID,1004.17,VALID,0,VALID,95.0558,VALID,0,VALID,23.9195,VALID,115,VALID,0.649609,
2008-08-31, 03:31:04,VALID,1004.16,VALID,0,VALID,95.1016,VALID,0,VALID,23.9195,VALID,116,VALID,0.147266,
2008-08-31, 03:32:04,VALID,1004.14,VALID,0,VALID,95.1016,VALID,0,VALID,23.9195,VALID,140,VALID,0.421094,
2008-08-31, 03:33:04,VALID,1004.16,VALID,0,VALID,95.4373,VALID,0,VALID,24.0168,VALID,150,VALID,0.771875,
2008-08-31, 03:34:04,VALID,1004.16,VALID,0,VALID,95.5365,VALID,0,VALID,24.116,VALID,145,VALID,0.919141,
2008-08-31, 03:35:04,VALID,1004.2,VALID,0,VALID,95.5212,VALID,0,VALID,24.1726,VALID,101,VALID,1.18125,
2008-08-31, 03:36:04,VALID,1004.21,VALID,0,VALID,95.2847,VALID,0,VALID,24.1726,VALID,69,VALID,0.453906,
2008-08-31, 03:37:04,VALID,1004.22,VALID,0,VALID,95.155,VALID,0,VALID,24.1939,VALID,52,VALID,0.826563,
2008-08-31, 03:38:04,VALID,1004.22,VALID,0,VALID,95.1321,VALID,0,VALID,24.1531,VALID,78,VALID,0.721094,
2008-08-31, 03:39:04,VALID,1004.23,VALID,0,VALID,95.1321,VALID,0,VALID,24.1142,VALID,37,VALID,0.741406,
2008-08-31, 03:40:04,VALID,1004.23,VALID,0,VALID,95.1703,VALID,0,VALID,24.1142,VALID,71,VALID,0.496094,
2008-08-31, 03:41:04,VALID,1004.26,VALID,0,VALID,95.2313,VALID,0,VALID,24.1123,VALID,78,VALID,1.00508,
2008-08-31, 03:42:04,VALID,1004.18,VALID,0,VALID,95.2542,VALID,0,VALID,24.1336,VALID,36,VALID,0.413281,
2008-08-31, 03:43:04,VALID,1004.11,VALID,0,VALID,95.2008,VALID,0,VALID,24.1336,VALID,38,VALID,0.424609,
2008-08-31, 03:44:04,VALID,1004.02,VALID,0,VALID,95.2237,VALID,0,VALID,24.1355,VALID,48,VALID,0.375781,
2008-08-31, 03:45:04,VALID,1004,VALID,0,VALID,95.1779,VALID,0,VALID,24.1549,VALID,182,VALID,0.744141,
2008-08-31, 03:46:04,VALID,1004.01,VALID,0,VALID,95.155,VALID,0,VALID,24.1336,VALID,182,VALID,0.200781,
2008-08-31, 03:47:04,VALID,1004.04,VALID,0,VALID,95.1398,VALID,0,VALID,24.1355,VALID,182,VALID,0.00195313,
2008-08-31, 03:48:04,VALID,1004.06,VALID,0,VALID,95.1779,VALID,0,VALID,24.1336,VALID,106,VALID,1.23711,
2008-08-31, 03:49:04,VALID,1004.07,VALID,0,VALID,95.2466,VALID,0,VALID,24.192,VALID,114,VALID,0.563281,
2008-08-31, 03:50:04,VALID,1004.04,VALID,0,VALID,95.1321,VALID,0,VALID,24.2328,VALID,38,VALID,0.714453,
2008-08-31, 03:51:04,VALID,1003.99,VALID,0,VALID,94.9185,VALID,0,VALID,24.1531,VALID,345,VALID,1.00859,